This demonstration page uses our WeatherBlox Daily Observations layout. Learn more.

Hourly Observations for December 10, 2017

Temp ( °F °C ) Dew Point ( °F °C ) Humidity (%) Winds ( mph kmh ) Pressure ( in mb ) Visibility ( mi km ) Precip ( " mm )
12:53 am 00:53 Cloudy 30 -1.1 21 -6.1 69 69 W 13 20 30.1 1019 10 16.0934 0 0
1:53 am 01:53 Cloudy 29 -1.7 21 -6.1 72 72 W 8 13 30.11 1020 10 16.0934 0 0
2:53 am 02:53 Cloudy 28 -2.2 20 -6.7 72 72 W 6 9 30.13 1020 10 16.0934 0 0
3:53 am 03:53 Partly Cloudy 25 -3.9 18 -7.8 75 75 WSW 8 13 30.14 1021 10 16.0934 0 0
4:53 am 04:53 Mostly Clear 24 -4.4 17 -8.3 75 75 WSW 6 9 30.13 1020 10 16.0934 0 0
5:53 am 05:53 Mostly Clear 23 -5 16 -8.9 74 74 WSW 8 13 30.15 1021 10 16.0934 0 0
6:53 am 06:53 Clear 22 -5.6 16 -8.9 78 78 SW 6 9 30.16 1021 10 16.0934 0 0
7:53 am 07:53 Sunny 22 -5.6 16 -8.9 78 78 SSW 5 7 30.17 1022 10 16.0934 0 0
8:53 am 08:53 Mostly Sunny 25 -3.9 17 -8.3 72 72 SW 7 11 30.16 1021 10 16.0934 0 0
9:53 am 09:53 Cloudy 26 -3.3 17 -8.3 69 69 SW 8 13 30.16 1022 10 16.0934 0 0
10:53 am 10:53 Cloudy 29 -1.7 18 -7.8 63 63 SSW 8 13 30.15 1021 10 16.0934 0 0
11:53 am 11:53 Cloudy 31 -0.6 19 -7.2 61 61 SW 8 13 30.11 1020 10 16.0934 0 0
12:53 pm 12:53 Cloudy 32 0 20 -6.7 61 61 SW 9 15 30.08 1019 10 16.0934 0 0
1:53 pm 13:53 Cloudy 33 0.6 19 -7.2 56 56 SSW 13 20 30.04 1017 10 16.0934 0 0
2:53 pm 14:53 Cloudy 35 1.7 20 -6.7 54 54 VRB 6 9 30 1016 10 16.0934 0 0
3:53 pm 15:53 Mostly Sunny 36 2.2 19 -7.2 50 50 SSW 13 20 29.99 1016 10 16.0934 0 0
4:53 pm 16:53 Sunny 35 1.7 19 -7.2 52 52 SW 6 9 30.01 1016 10 16.0934 0 0
5:53 pm 17:53 Clear 33 0.6 19 -7.2 56 56 SW 5 7 30.04 1017 10 16.0934 0 0
6:53 pm 18:53 Clear 30 -1.1 21 -6.1 69 69 Calm 30.05 1018 10 16.0934 0 0
7:53 pm 19:53 Partly Cloudy 29 -1.7 23 -5 78 78 Calm 30.06 1018 10 16.0934 0 0
8:53 pm 20:53 Clear 25 -3.9 21 -6.1 85 85 Calm 30.06 1018 10 16.0934 0 0
9:53 pm 21:53 Clear 25 -3.9 20 -6.7 81 81 W 3 6 30.07 1018 10 16.0934 0 0
10:53 pm 22:53 Clear 30 -1.1 21 -6.1 69 69 WSW 7 11 30.08 1019 10 16.0934 0 0
11:53 pm 23:53 Clear 28 -2.2 21 -6.1 75 75 W 5 7 30.09 1019 10 16.0934 0 0

Powered by AerisWeather